WESTFORD NEEDLES, 628

Orbit data source: Space-Track

WESTFORD NEEDLES, 628 is space debris in LEO originally from a launch on Thu, 09 May 1963 UTC launched from the Air Force Western Test Range (AFWTR). Debris objects in space refer to the collection of defunct objects orbiting the Earth. Examples of debris include non-operational satellites, rocket bodies, and fragments generated from explosions, collisions, or faulty payload assembly.

Loading next visibility...
Identifier
628, 1963-014F
Orbit
LEO
Country
Flag of USUS
Related business
Manufacturer
Unknown
Mission
Spacecraft
Bus & Motor
Unknown
Mass
~10 kg wet, ~10 kg dry
Launch date (UTC)
1963-05-09 (63 years ago)
Launch vehicle
Unknown
Launch site
Air Force Western Test Range (AFWTR)
Object type
Payload
Rocket body
Debris
Shape & HBR
Unknown
Radar Cross Section
Medium (>0.1 m² and <1 m²)

Expand to show TLE details & history
Last TLE update: 12 hours ago

TLE from 12 hours ago
0 WESTFORD NEEDLES
1   628U 63014F   26124.20976262  .00000003  00000-0  00000+0 0  9991
2   628  87.3484 207.4182 0021354 187.3679 172.6863  8.63374129985167
Epoch: 2026-05-04T05:02Z
TLE epoch observation values (Epoch: 2026-05-04T05:02:03.490Z)
Latitude
0.00003°
Longitude
-90.19858°
Altitude
3,682.275 km
Speed
6.289 km/s
True Right ascension
13h 49m 40s
True Declination
0° 00' 00"
Sunlit
Object was in full shadow at epoch
Visualization orbit readout
Latitude
Unknown
Longitude
Unknown
Altitude
Unknown
Speed
Unknown
Apparent Right ascension
Unknown
Apparent Declination
Unknown
Sunlit
N/A
Visualization observer readout
Local Sidereal Time
00:40:29
Azimuth
Unknown
Elevation
Unknown
Doppler factor
Unknown
Orbital elements
Apogee altitude
3,678.085 km
Perigee altitude
3,635.228 km
Semi-major axis
10,034.793 km
Eccentricity
0.00214
Inclination
87.3484°
RAAN
207.4182°
Arg. of periapsis
187.3679°
True anomaly
172.71737°
Mean anomaly
172.6863°
Eccentric anomaly
172.70184°
Mean motion
2.15914 °/min
Orbital period
166.73 mins
BSTAR
0
Loading maneuver chart data...
Computing Atmospheric mass density...

Documentation

Showing up to 5 results
|